Pardubice, Czech Republic

7:31 PM CET on March 25, 2017 (GMT +0100)
Pardubice

Weather History for LKPD - June, 2013

Change the Weather History Date:

Wednesday, June 19, 2013

  Actual Average Record
Temperature  
Mean Temperature 78 °F -  
Max Temperature 91 °F - - ()
Min Temperature 66 °F - - ()
Cooling Degree Days 14    
Growing Degree Days 28 (Base 50)    
Moisture  
Dew Point 69 °F    
Average Humidity 71    
Maximum Humidity 94    
Minimum Humidity 49    
Precipitation  
Precipitation 0.00 in - - ()
Sea Level Pressure  
Sea Level Pressure 30.01 in    
Wind  
Wind Speed 4 mph ()    
Max Wind Speed 13 mph    
Max Gust Speed -    
Visibility 6.2 miles    
Events      
T = Trace of Precipitation, MM = Missing Value Source: Averaged Metar Reports

Daily Weather History Graph

Daily Weather History Graph

Search for Another Location

Airport or City:

Trip Planner

Search our weather history database for the weather conditions in past years. The results will help you decide how hot, cold, wet, or windy it might be!

Date:

Astronomy

Jun. 19, 2013 Rise Set
Actual Time 4:47 AM CEST 9:09 PM CEST
Civil Twilight 4:02 AM CEST 9:54 PM CEST
Nautical Twilight 2:56 AM CEST 11:00 PM CEST
Astronomical Twilight 1:30 AM CEST 12:26 AM CEST
Moon 4:23 PM CEST (6/19) 1:43 AM CEST (6/19)
Length of Visible Light 17h 51m
Length of Day
16h 22m
Waxing Gibbous, 78% of the Moon is Illuminated
Jun 19
Waxing Gibbous
Jun 23
Full
Jun 30
Last Quarter
Jul 8
New
Jul 16
First Quarter

Hourly Weather History & Observations

Time (CEST) Temp. Heat Index Dew Point Humidity Pressure Visibility Wind Dir Wind Speed Gust Speed Precip Events Conditions
12:00 AM 75.2 °F - 68.0 °F 78% 30.04 in - Variable 1.2 mph - N/A   Clear
1:00 AM 71.6 °F - 68.0 °F 88% 30.04 in - Calm Calm - N/A   Clear
2:00 AM 71.6 °F - 66.2 °F 83% 30.04 in - Variable 2.3 mph - N/A   Clear
3:00 AM 68.0 °F - 66.2 °F 94% 30.04 in - Calm Calm - N/A   Clear
4:00 AM 66.2 °F - 64.4 °F 94% 30.04 in - East 3.5 mph - N/A   Clear
5:00 AM 66.2 °F - 64.4 °F 94% 30.04 in - Variable 2.3 mph - N/A   Clear
6:00 AM 66.2 °F - 64.4 °F 94% 30.04 in - Variable 1.2 mph - N/A   Clear
7:00 AM 69.8 °F - 66.2 °F 88% 30.04 in - Variable 1.2 mph - N/A   Clear
8:00 AM 75.2 °F - 68.0 °F 78% 30.04 in - East 5.8 mph - N/A   Clear
9:00 AM 78.8 °F - 68.0 °F 69% 30.04 in - East 5.8 mph - N/A   Clear
10:00 AM 82.4 °F 87.2 °F 71.6 °F 70% 30.04 in - East 5.8 mph - N/A   Clear
11:00 AM 86.0 °F 90.4 °F 69.8 °F 58% 30.04 in - ESE 6.9 mph - N/A   Clear
12:00 PM 87.8 °F 92.6 °F 69.8 °F 55% 30.04 in 6.2 mi East 8.1 mph - N/A   Partly Cloudy
1:00 PM 89.6 °F 94.7 °F 69.8 °F 52% 30.01 in 6.2 mi East 6.9 mph - N/A   Scattered Clouds
2:00 PM 89.6 °F 94.7 °F 69.8 °F 52% 30.01 in 6.2 mi East 9.2 mph - N/A   Scattered Clouds
3:00 PM 91.4 °F 96.8 °F 69.8 °F 49% 29.98 in 6.2 mi East 11.5 mph - N/A   Scattered Clouds
4:00 PM 91.4 °F 96.8 °F 69.8 °F 49% 29.98 in - East 11.5 mph - N/A   Clear
5:00 PM 91.4 °F 96.8 °F 69.8 °F 49% 29.98 in - East 12.7 mph - N/A   Clear
6:00 PM 89.6 °F 96.2 °F 71.6 °F 55% 29.95 in - East 10.4 mph - N/A   Clear
7:00 PM 86.0 °F 90.4 °F 69.8 °F 58% 29.95 in - East 9.2 mph - N/A   Clear
8:00 PM 84.2 °F 89.6 °F 71.6 °F 66% 29.95 in - East 8.1 mph - N/A   Clear
9:00 PM 80.6 °F 83.9 °F 69.8 °F 70% 29.98 in - East 8.1 mph - N/A   Clear
10:00 PM 78.8 °F - 69.8 °F 74% 29.98 in - East 8.1 mph - N/A   Clear
11:00 PM 73.4 °F - 68.0 °F 83% 29.98 in - East 6.9 mph - N/A   Clear